Surface/Precipitation History
10/22/2017 09:27  to  10/23/2017 09:27
Change End Date:
Date/Time
(MDT)
Sf
Temp Chem Water Layer Surface Precipitation
Sfc Pvt Sub Frz Factor Pct Dpth DpthThk IcePct Cond Salin FI Type Intens Accum Rate
10/23/2017 09:15 Wet 36.3F - 46F 32F 5 0% 0.00 in - 0% 0 mhos 0 - None None 0.22 in 0.0 iph
10/23/2017 09:07 Wet 35.4F - 46F 32F 5 0% 0.00 in - 0% 0 mhos 0 - None None 0.23 in 0.0 iph
10/23/2017 09:00 Wet 34.3F - 46F 32F 5 0% 0.00 in - 0% 0 mhos 0 - None None 0.23 in 0.0 iph
10/23/2017 08:57 Wet 34.2F - 46F 32F 5 0% 0.00 in - 0% 0 mhos 0 - None None 0.23 in 0.0 iph
10/23/2017 08:47 Wet 34.0F - 46F 32F 5 0% 0.00 in - 0% 0 mhos 0 - None None 0.24 in 0.0 iph
10/23/2017 08:45 Wet 34.0F - 46F 32F 5 0% 0.00 in - 0% 0 mhos 0 - None None 0.24 in 0.0 iph
10/23/2017 08:37 Wet 34.0F - 46F 32F 5 0% 0.00 in - 0% 0 mhos 0 - None None 0.27 in 0.0 iph
10/23/2017 08:30 Wet 34.0F - 46F 32F 5 0% 0.00 in - 0% 0 mhos 0 - None None 0.28 in 0.0 iph
10/23/2017 08:27 Wet 34.0F - 46F 32F 5 0% 0.00 in - 0% 0 mhos 0 - None None 0.28 in 0.0 iph
10/23/2017 08:17 Wet 34.2F - 46F 32F 5 0% 0.00 in - 0% 0 mhos 0 - None None 0.31 in 0.0 iph
10/23/2017 08:15 Wet 34.3F - 46F 32F 5 0% 0.00 in - 0% 0 mhos 0 - None None 0.31 in 0.0 iph
10/23/2017 08:07 Wet 34.5F - 46F 32F 5 0% 0.00 in - 0% 0 mhos 0 - None None 0.31 in 0.0 iph
10/23/2017 08:00 Wet 34.5F - 46F 32F 5 0% 0.00 in - 0% 0 mhos 0 - None None 0.31 in 0.0 iph
10/23/2017 07:57 Wet 34.5F - 46F 32F 5 0% 0.00 in - 0% 0 mhos 0 - None None 0.31 in 0.0 iph
10/23/2017 07:47 Wet 34.9F - 46F 32F 5 0% 0.00 in - 0% 0 mhos 0 - None None 0.31 in 0.0 iph
Date/Time
(MDT)
Sf
Temp Chem Water Layer Surface Precipitation
Sfc Pvt Sub Frz Factor Pct Dpth DpthThk IcePct Cond Salin FI Type Intens Accum Rate
10/23/2017 07:45 Wet 34.9F - 46F 32F 5 0% 0.00 in - 0% 0 mhos 0 - None None 0.31 in 0.0 iph
10/23/2017 07:37 Wet 35.4F - 46F 32F 5 0% 0.00 in - 0% 0 mhos 0 - None None 0.32 in 0.0 iph
10/23/2017 07:30 Wet 35.6F - 46F 32F 5 0% 0.00 in - 0% 0 mhos 0 - None None 0.33 in 0.0 iph
10/23/2017 07:27 Wet 35.6F - 46F 32F 5 0% 0.00 in - 0% 0 mhos 0 - None None 0.33 in 0.0 iph
10/23/2017 07:17 Wet 35.8F - 46F 32F 5 0% 0.00 in - 0% 0 mhos 0 - None None 0.34 in 0.0 iph
10/23/2017 07:15 Wet 35.8F - 46F 32F 5 0% 0.00 in - 0% 0 mhos 0 - None None 0.34 in 0.0 iph
10/23/2017 07:07 Wet 35.8F - 46F 32F 5 0% 0.00 in - 0% 0 mhos 0 - None None 0.35 in 0.0 iph
10/23/2017 06:56 Wet 35.6F - 46F 32F 5 0% 0.00 in - 0% 0 mhos 0 - None None 0.36 in 0.0 iph
10/23/2017 06:46 Wet 35.8F - 46F 32F 5 0% 0.00 in - 0% 0 mhos 0 - None None 0.38 in 0.0 iph
10/23/2017 06:45 Wet 35.8F - 46F 32F 5 0% 0.00 in - 0% 0 mhos 0 - None None 0.38 in 0.0 iph
10/23/2017 06:36 Wet 35.8F - 46F 32F 5 0% 0.00 in - 0% 0 mhos 0 - None None 0.38 in 0.0 iph
10/23/2017 06:30 Wet 36.0F - 46F 32F 5 0% 0.00 in - 0% 0 mhos 0 - None None 0.38 in 0.0 iph
10/23/2017 06:26 Wet 36.1F - 46F 32F 5 0% 0.00 in - 0% 0 mhos 0 - None None 0.38 in 0.0 iph
10/23/2017 06:16 Wet 36.1F - 46F 32F 5 0% 0.00 in - 0% 0 mhos 0 - None None 0.39 in 0.0 iph
10/23/2017 06:15 Wet 36.1F - 46F 32F 5 0% 0.00 in - 0% 0 mhos 0 - None None 0.39 in 0.0 iph
Date/Time
(MDT)
Sf
Temp Chem Water Layer Surface Precipitation
Sfc Pvt Sub Frz Factor Pct Dpth DpthThk IcePct Cond Salin FI Type Intens Accum Rate
10/23/2017 06:06 Wet 36.0F - 46F 32F 5 0% 0.00 in - 0% 0 mhos 0 - None None 0.41 in 0.0 iph
10/23/2017 06:00 Wet 36.0F - 46F 32F 5 0% 0.00 in - 0% 0 mhos 0 - None None 0.42 in 0.0 iph
10/23/2017 05:56 Wet 36.0F - 46F 32F 5 0% 0.00 in - 0% 0 mhos 0 - None None 0.42 in 0.0 iph
10/23/2017 05:46 Wet 36.3F - 46F 32F 5 0% 0.00 in - 0% 0 mhos 0 - None None 0.43 in 0.0 iph
10/23/2017 05:45 Wet 36.3F - 46F 32F 5 0% 0.00 in - 0% 0 mhos 0 - None None 0.43 in 0.0 iph
10/23/2017 05:36 Wet 36.3F - 46F 32F 5 0% 0.00 in - 0% 0 mhos 0 - None None 0.45 in 0.0 iph
10/23/2017 05:30 Wet 36.3F - 46F 32F 5 0% 0.00 in - 0% 0 mhos 0 - None None 0.46 in 0.0 iph
10/23/2017 05:26 Wet 36.5F - 46F 32F 5 0% 0.00 in - 0% 0 mhos 0 - None None 0.46 in 0.0 iph
10/23/2017 05:16 Wet 36.3F - 46F 32F 5 0% 0.00 in - 0% 0 mhos 0 - None None 0.47 in 0.0 iph
10/23/2017 05:15 Wet 36.3F - 46F 32F 5 0% 0.00 in - 0% 0 mhos 0 - None None 0.47 in 0.0 iph
10/23/2017 05:06 Wet 36.1F - 46F 32F 5 0% 0.00 in - 0% 0 mhos 0 - None None 0.49 in 0.0 iph
10/23/2017 05:00 Wet 36.0F - 46F 32F 5 0% 0.00 in - 0% 0 mhos 0 - None None 0.50 in 0.0 iph
10/23/2017 04:56 Wet 35.8F - 46F 32F 5 0% 0.00 in - 0% 0 mhos 0 - None None 0.50 in 0.0 iph
10/23/2017 04:46 Wet 35.6F - 46F 32F 5 0% 0.00 in - 0% 0 mhos 0 - None None 0.52 in 0.0 iph
10/23/2017 04:45 Wet 35.6F - 46F 32F 5 0% 0.00 in - 0% 0 mhos 0 - None None 0.52 in 0.0 iph
Date/Time
(MDT)
Sf
Temp Chem Water Layer Surface Precipitation
Sfc Pvt Sub Frz Factor Pct Dpth DpthThk IcePct Cond Salin FI Type Intens Accum Rate
10/23/2017 04:36 Wet 35.8F - 46F 32F 5 0% 0.00 in - 0% 0 mhos 0 - None None 0.53 in 0.0 iph
10/23/2017 04:30 Wet 35.8F - 46F 32F 5 0% 0.00 in - 0% 0 mhos 0 - None None 0.54 in 0.0 iph
10/23/2017 04:26 Wet 36.0F - 46F 32F 5 0% 0.00 in - 0% 0 mhos 0 - None None 0.54 in 0.0 iph
10/23/2017 04:16 Wet 36.1F - 46F 32F 5 0% 0.00 in - 0% 0 mhos 0 - None None 0.56 in 0.0 iph
10/23/2017 04:15 Wet 36.1F - 46F 32F 5 0% 0.00 in - 0% 0 mhos 0 - None None 0.56 in 0.0 iph
10/23/2017 04:05 Wet 36.7F - 46F 32F 5 0% 0.00 in - 0% 0 mhos 0 - None None 0.57 in 0.0 iph
10/23/2017 04:00 Wet 36.9F - 46F 32F 5 0% 0.00 in - 0% 0 mhos 0 - None None 0.59 in 0.0 iph
10/23/2017 03:55 Wet 37.0F - 46F 32F 5 0% 0.00 in - 0% 0 mhos 0 - None None 0.59 in 0.0 iph
10/23/2017 03:45 Wet 37.4F - 46F 32F 5 0% 0.00 in - 0% 0 mhos 0 - None None 0.60 in 0.0 iph
10/23/2017 03:45 Wet 37.6F - 46F 32F 5 0% 0.00 in - 0% 0 mhos 0 - None None 0.60 in 0.0 iph
10/23/2017 03:35 Wet 38.1F - 46F 32F 5 0% 0.00 in - 0% 0 mhos 0 - None None 0.61 in 0.0 iph
10/23/2017 03:30 Wet 38.3F - 46F 32F 5 0% 0.00 in - 0% 0 mhos 0 - None None 0.62 in 0.0 iph
10/23/2017 03:25 Wet 38.5F - 46F 32F 5 0% 0.00 in - 0% 0 mhos 0 - None None 0.62 in 0.0 iph
10/23/2017 03:15 Wet 38.8F - 46F 32F 5 0% 0.00 in - 0% 0 mhos 0 - None None 0.64 in 0.0 iph
10/23/2017 03:15 Wet 38.7F - 46F 32F 5 0% 0.00 in - 0% 0 mhos 0 - None None 0.64 in 0.0 iph
Date/Time
(MDT)
Sf
Temp Chem Water Layer Surface Precipitation
Sfc Pvt Sub Frz Factor Pct Dpth DpthThk IcePct Cond Salin FI Type Intens Accum Rate
10/23/2017 03:05 Wet 38.7F - 46F 32F 5 0% 0.00 in - 0% 0 mhos 0 - None None 0.65 in 0.0 iph
10/23/2017 03:00 Wet 38.7F - 46F 32F 5 0% 0.00 in - 0% 0 mhos 0 - None None 0.67 in 0.0 iph
10/23/2017 02:55 Wet 38.5F - 46F 32F 5 0% 0.00 in - 0% 0 mhos 0 - None None 0.67 in 0.0 iph
10/23/2017 02:45 Wet 38.3F - 46F 32F 5 0% 0.00 in - 0% 0 mhos 0 - None None 0.67 in 0.0 iph
10/23/2017 02:45 Wet 38.3F - 46F 32F 5 0% 0.00 in - 0% 0 mhos 0 - None None 0.67 in 0.0 iph
10/23/2017 02:35 Wet 38.5F - 46F 32F 5 0% 0.00 in - 0% 0 mhos 0 - None None 0.67 in 0.0 iph
10/23/2017 02:30 Wet 38.5F - 46F 32F 5 0% 0.00 in - 0% 0 mhos 0 - None None 0.67 in 0.0 iph
10/23/2017 02:25 Wet 38.7F - 46F 32F 5 0% 0.00 in - 0% 0 mhos 0 - None None 0.67 in 0.0 iph
10/23/2017 02:15 Wet 38.7F - 46F 32F 5 0% 0.00 in - 0% 0 mhos 0 - None None 0.68 in 0.0 iph
10/23/2017 02:15 Wet 38.7F - 46F 32F 5 0% 0.00 in - 0% 0 mhos 0 - None None 0.68 in 0.0 iph
10/23/2017 02:05 Wet 38.8F - 46F 32F 5 0% 0.00 in - 0% 0 mhos 0 - None None 0.68 in 0.0 iph
10/23/2017 02:00 Wet 39.0F - 46F 32F 5 0% 0.00 in - 0% 0 mhos 0 - None None 0.69 in 0.0 iph
10/23/2017 01:55 Wet 39.2F - 46F 32F 5 0% 0.00 in - 0% 0 mhos 0 - None None 0.69 in 0.0 iph
10/23/2017 01:45 Wet 39.2F - 46F 32F 5 0% 0.00 in - 0% 0 mhos 0 - None None 0.69 in 0.0 iph
10/23/2017 01:45 Wet 39.2F - 46F 32F 5 0% 0.00 in - 0% 0 mhos 0 - None None 0.69 in 0.0 iph
Date/Time
(MDT)
Sf
Temp Chem Water Layer Surface Precipitation
Sfc Pvt Sub Frz Factor Pct Dpth DpthThk IcePct Cond Salin FI Type Intens Accum Rate
10/23/2017 01:34 Wet 39.4F - 46F 32F 5 0% 0.00 in - 0% 0 mhos 0 - None None 0.69 in 0.0 iph
10/23/2017 01:30 Wet 39.4F - 46F 32F 5 0% 0.00 in - 0% 0 mhos 0 - None None 0.69 in 0.0 iph
10/23/2017 01:24 Wet 39.4F - 46F 32F 5 0% 0.00 in - 0% 0 mhos 0 - None None 0.69 in 0.0 iph
10/23/2017 01:15 Wet 39.0F - 46F 32F 5 0% 0.00 in - 0% 0 mhos 0 - None None 0.69 in 0.0 iph
10/23/2017 01:14 Wet 39.0F - 46F 32F 5 0% 0.00 in - 0% 0 mhos 0 - None None 0.69 in 0.0 iph
10/23/2017 01:04 Wet 38.8F - 46F 32F 5 0% 0.00 in - 0% 0 mhos 0 - None None 0.70 in 0.0 iph
10/23/2017 01:00 Wet 38.8F - 46F 32F 5 0% 0.00 in - 0% 0 mhos 0 - None None 0.70 in 0.0 iph
10/23/2017 00:54 Wet 38.8F - 46F 32F 5 0% 0.00 in - 0% 0 mhos 0 - None None 0.70 in 0.0 iph
10/23/2017 00:45 Wet 39.2F - 46F 32F 5 0% 0.00 in - 0% 0 mhos 0 - None None 0.70 in 0.0 iph
10/23/2017 00:44 Wet 39.2F - 46F 32F 5 0% 0.00 in - 0% 0 mhos 0 - None None 0.70 in 0.0 iph
10/23/2017 00:34 Wet 39.9F - 46F 32F 5 0% 0.00 in - 0% 0 mhos 0 - None None 0.70 in 0.0 iph
10/23/2017 00:30 Wet 39.9F - 46F 32F 5 0% 0.00 in - 0% 0 mhos 0 - None None 0.70 in 0.0 iph
10/23/2017 00:24 Wet 39.9F - 46F 32F 5 0% 0.00 in - 0% 0 mhos 0 - None None 0.70 in 0.0 iph
10/23/2017 00:15 Wet 40.1F - 46F 32F 5 0% 0.00 in - 0% 0 mhos 0 - Yes Slight 0.70 in 0.0 iph
10/23/2017 00:14 Wet 40.1F - 46F 32F 5 0% 0.00 in - 0% 0 mhos 0 - Yes Moderate 0.70 in 0.0 iph
Date/Time
(MDT)
Sf
Temp Chem Water Layer Surface Precipitation
Sfc Pvt Sub Frz Factor Pct Dpth DpthThk IcePct Cond Salin FI Type Intens Accum Rate
10/23/2017 00:04 Wet 40.3F - 46F 32F 5 0% 0.00 in - 0% 0 mhos 0 - None None 0.71 in 0.0 iph
10/23/2017 00:00 Wet 40.6F - 46F 32F 5 0% 0.00 in - 0% 0 mhos 0 - Yes Slight 0.71 in 0.0 iph
10/22/2017 23:54 Wet 40.8F - 46F 32F 5 0% 0.00 in - 0% 0 mhos 0 - None None 0.71 in 0.0 iph
10/22/2017 23:45 Wet 41.2F - 46F 32F 5 0% 0.00 in - 0% 0 mhos 0 - None None 0.72 in 0.0 iph
10/22/2017 23:44 Wet 41.0F - 46F 32F 5 0% 0.00 in - 0% 0 mhos 0 - None None 0.72 in 0.0 iph
10/22/2017 23:34 Wet 40.8F - 46F 32F 5 0% 0.00 in - 0% 0 mhos 0 - None None 0.72 in 0.0 iph
10/22/2017 23:30 Wet 40.8F - 46F 32F 5 0% 0.00 in - 0% 0 mhos 0 - None None 0.72 in 0.0 iph
10/22/2017 23:24 Wet 40.8F - 46F 32F 5 0% 0.00 in - 0% 0 mhos 0 - None None 0.72 in 0.0 iph
10/22/2017 23:15 Wet 41.2F - 46F 32F 5 0% 0.00 in - 0% 0 mhos 0 - None None 0.73 in 0.0 iph
10/22/2017 23:14 Wet 41.4F - 46F 32F 5 0% 0.00 in - 0% 0 mhos 0 - None None 0.73 in 0.0 iph
10/22/2017 23:04 Wet 41.5F - 46F 32F 5 0% 0.00 in - 0% 0 mhos 0 - None None 0.73 in 0.0 iph
10/22/2017 23:00 Wet 41.5F - 46F 32F 5 0% 0.00 in - 0% 0 mhos 0 - None None 0.74 in 0.0 iph
10/22/2017 22:53 Wet 41.4F - 46F 32F 5 0% 0.00 in - 0% 0 mhos 0 - None None 0.74 in 0.0 iph
10/22/2017 22:45 Wet 41.4F - 46F 32F 5 0% 0.00 in - 0% 0 mhos 0 - None None 0.74 in 0.0 iph
10/22/2017 22:43 Wet 41.4F - 46F 32F 5 0% 0.00 in - 0% 0 mhos 0 - None None 0.74 in 0.0 iph
Date/Time
(MDT)
Sf
Temp Chem Water Layer Surface Precipitation
Sfc Pvt Sub Frz Factor Pct Dpth DpthThk IcePct Cond Salin FI Type Intens Accum Rate
10/22/2017 22:33 Wet 41.2F - 46F 32F 5 0% 0.00 in - 0% 0 mhos 0 - None None 0.75 in 0.0 iph
10/22/2017 22:30 Wet 41.2F - 46F 32F 5 0% 0.00 in - 0% 0 mhos 0 - None None 0.75 in 0.0 iph
10/22/2017 22:23 Wet 41.5F - 46F 32F 5 0% 0.00 in - 0% 0 mhos 0 - None None 0.75 in 0.0 iph
10/22/2017 22:15 Wet 41.7F - 46F 32F 5 0% 0.00 in - 0% 0 mhos 0 - None None 0.76 in 0.0 iph
10/22/2017 22:13 Wet 41.7F - 46F 32F 5 0% 0.00 in - 0% 0 mhos 0 - None None 0.76 in 0.0 iph
10/22/2017 22:03 Wet 41.7F - 46F 32F 5 0% 0.00 in - 0% 0 mhos 0 - None None 0.76 in 0.0 iph
10/22/2017 22:00 Wet 41.7F - 46F 32F 5 0% 0.00 in - 0% 0 mhos 0 - None None 0.77 in 0.0 iph
10/22/2017 21:53 Wet 41.9F - 46F 32F 5 0% 0.00 in - 0% 0 mhos 0 - None None 0.77 in 0.0 iph
10/22/2017 21:45 Wet 41.9F - 46F 32F 5 0% 0.00 in - 0% 0 mhos 0 - None None 0.77 in 0.0 iph
10/22/2017 21:43 Wet 41.9F - 46F 32F 5 0% 0.00 in - 0% 0 mhos 0 - None None 0.77 in 0.0 iph
10/22/2017 21:33 Wet 41.9F - 46F 32F 5 0% 0.00 in - 0% 0 mhos 0 - None None 0.78 in 0.0 iph
10/22/2017 21:30 Wet 41.9F - 46F 32F 5 0% 0.00 in - 0% 0 mhos 0 - None None 0.80 in 0.0 iph
10/22/2017 21:23 Wet 41.9F - 46F 32F 5 0% 0.00 in - 0% 0 mhos 0 - None None 0.80 in 0.0 iph
10/22/2017 21:15 Wet 41.9F - 46F 32F 5 0% 0.00 in - 0% 0 mhos 0 - None None 0.81 in 0.0 iph
10/22/2017 21:13 Wet 41.9F - 46F 32F 5 0% 0.00 in - 0% 0 mhos 0 - None None 0.81 in 0.0 iph
Date/Time
(MDT)
Sf
Temp Chem Water Layer Surface Precipitation
Sfc Pvt Sub Frz Factor Pct Dpth DpthThk IcePct Cond Salin FI Type Intens Accum Rate
10/22/2017 21:03 Wet 41.9F - 46F 32F 5 0% 0.00 in - 0% 0 mhos 0 - None None 0.81 in 0.0 iph
10/22/2017 21:00 Wet 42.1F - 46F 32F 5 0% 0.00 in - 0% 0 mhos 0 - None None 0.82 in 0.0 iph
10/22/2017 20:53 Wet 42.3F - 46F 32F 5 0% 0.00 in - 0% 0 mhos 0 - None None 0.82 in 0.0 iph
10/22/2017 20:45 Wet 42.3F - 46F 32F 5 0% 0.00 in - 0% 0 mhos 0 - None None 0.83 in 0.0 iph
10/22/2017 20:43 Wet 42.3F - 46F 32F 5 0% 0.00 in - 0% 0 mhos 0 - None None 0.83 in 0.0 iph
10/22/2017 20:33 Wet 42.6F - 46F 32F 5 0% 0.00 in - 0% 0 mhos 0 - None None 0.83 in 0.0 iph
10/22/2017 20:30 Wet 43.0F - 46F 32F 5 0% 0.00 in - 0% 0 mhos 0 - None None 0.84 in 0.0 iph
10/22/2017 20:22 Wet 43.2F - 46F 32F 5 0% 0.00 in - 0% 0 mhos 0 - None None 0.84 in 0.0 iph
10/22/2017 20:15 Wet 43.2F - 46F 32F 5 0% 0.00 in - 0% 0 mhos 0 - None None 0.84 in 0.0 iph
10/22/2017 20:12 Wet 43.3F - 46F 32F 5 0% 0.00 in - 0% 0 mhos 0 - None None 0.84 in 0.0 iph
10/22/2017 20:02 Wet 43.3F - 45F 32F 5 0% 0.00 in - 0% 0 mhos 0 - None None 0.85 in 0.0 iph
10/22/2017 20:00 Wet 43.5F - 46F 32F 5 0% 0.00 in - 0% 0 mhos 0 - None None 0.85 in 0.0 iph
10/22/2017 19:52 Wet 43.5F - 45F 32F 5 0% 0.00 in - 0% 0 mhos 0 - None None 0.85 in 0.0 iph
10/22/2017 19:45 Wet 43.3F - 45F 32F 5 0% 0.00 in - 0% 0 mhos 0 - None None 0.85 in 0.0 iph
10/22/2017 19:42 Wet 43.3F - 45F 32F 5 0% 0.00 in - 0% 0 mhos 0 - None None 0.85 in 0.0 iph
Date/Time
(MDT)
Sf
Temp Chem Water Layer Surface Precipitation
Sfc Pvt Sub Frz Factor Pct Dpth DpthThk IcePct Cond Salin FI Type Intens Accum Rate
10/22/2017 19:32 Wet 43.7F - 45F 32F 5 0% 0.00 in - 0% 0 mhos 0 - None None 0.86 in 0.0 iph
10/22/2017 19:30 Wet 43.7F - 45F 32F 5 0% 0.00 in - 0% 0 mhos 0 - None None 0.87 in 0.0 iph
10/22/2017 19:22 Wet 44.1F - 45F 32F 5 0% 0.00 in - 0% 0 mhos 0 - None None 0.87 in 0.0 iph
10/22/2017 19:15 Wet 44.4F - 45F 32F 5 0% 0.00 in - 0% 0 mhos 0 - None None 0.87 in 0.0 iph
10/22/2017 19:12 Wet 44.4F - 45F 32F 5 0% 0.00 in - 0% 0 mhos 0 - None None 0.87 in 0.0 iph
10/22/2017 19:02 Wet 44.8F - 45F 32F 5 0% 0.00 in - 0% 0 mhos 0 - None None 0.88 in 0.0 iph
10/22/2017 19:00 Wet 45.0F - 45F 32F 5 0% 0.00 in - 0% 0 mhos 0 - None None 0.89 in 0.0 iph
10/22/2017 18:52 Wet 45.3F - 45F 32F 5 0% 0.00 in - 0% 0 mhos 0 - None None 0.89 in 0.0 iph
10/22/2017 18:45 Wet 45.5F - 45F 32F 5 0% 0.00 in - 0% 0 mhos 0 - None None 0.89 in 0.0 iph
10/22/2017 18:42 Wet 45.5F - 45F 32F 5 0% 0.00 in - 0% 0 mhos 0 - None None 0.89 in 0.0 iph
10/22/2017 18:32 Wet 45.9F - 45F 32F 5 0% 0.00 in - 0% 0 mhos 0 - None None 0.89 in 0.0 iph
10/22/2017 18:30 Wet 45.9F - 45F 32F 5 0% 0.00 in - 0% 0 mhos 0 - None None 0.89 in 0.0 iph
10/22/2017 18:22 Wet 45.9F - 45F 32F 5 0% 0.00 in - 0% 0 mhos 0 - None None 0.89 in 0.0 iph
10/22/2017 18:15 Wet 46.2F - 45F 32F 5 0% 0.00 in - 0% 0 mhos 0 - None None 0.90 in 0.0 iph
10/22/2017 18:12 Wet 46.2F - 45F 32F 5 0% 0.00 in - 0% 0 mhos 0 - None None 0.90 in 0.0 iph
Date/Time
(MDT)
Sf
Temp Chem Water Layer Surface Precipitation
Sfc Pvt Sub Frz Factor Pct Dpth DpthThk IcePct Cond Salin FI Type Intens Accum Rate
10/22/2017 18:02 Wet 46.6F - 45F 32F 5 0% 0.00 in - 0% 0 mhos 0 - None None 0.90 in 0.0 iph
10/22/2017 18:00 Wet 46.9F - 45F 32F 5 0% 0.00 in - 0% 0 mhos 0 - None None 0.90 in 0.0 iph
10/22/2017 17:52 Wet 47.5F - 45F 32F 5 0% 0.00 in - 0% 0 mhos 0 - None None 0.90 in 0.0 iph
10/22/2017 17:45 Wet 47.8F - 45F 32F 5 0% 0.00 in - 0% 0 mhos 0 - None None 0.90 in 0.0 iph
10/22/2017 17:42 Wet 48.0F - 45F 32F 5 0% 0.00 in - 0% 0 mhos 0 - None None 0.90 in 0.0 iph
10/22/2017 17:31 Wet 48.4F - 45F 32F 5 0% 0.00 in - 0% 0 mhos 0 - None None 0.90 in 0.0 iph
10/22/2017 17:30 Wet 48.4F - 45F 32F 5 0% 0.00 in - 0% 0 mhos 0 - None None 0.91 in 0.0 iph
10/22/2017 17:21 Wet 48.9F - 45F 32F 5 0% 0.00 in - 0% 0 mhos 0 - None None 0.91 in 0.0 iph
10/22/2017 17:15 Wet 49.8F - 45F 32F 5 0% 0.00 in - 0% 0 mhos 0 - None None 0.91 in 0.0 iph
10/22/2017 17:11 Wet 50.0F - 45F 32F 5 0% 0.00 in - 0% 0 mhos 0 - None None 0.91 in 0.0 iph
10/22/2017 17:01 Wet 50.9F - 45F 32F 5 0% 0.00 in - 0% 0 mhos 0 - None None 0.91 in 0.0 iph
10/22/2017 17:00 Wet 50.9F - 45F 32F 5 0% 0.00 in - 0% 0 mhos 0 - None None 0.91 in 0.0 iph
10/22/2017 16:51 Wet 52.0F - 45F 32F 5 0% 0.00 in - 0% 0 mhos 0 - None None 0.91 in 0.0 iph
10/22/2017 16:45 Wet 53.4F - 44F 32F 5 0% 0.00 in - 0% 0 mhos 0 - None None 0.91 in 0.0 iph
10/22/2017 16:41 Wet 52.7F - 44F 32F 5 0% 0.00 in - 0% 0 mhos 0 - None None 0.91 in 0.0 iph
Date/Time
(MDT)
Sf
Temp Chem Water Layer Surface Precipitation
Sfc Pvt Sub Frz Factor Pct Dpth DpthThk IcePct Cond Salin FI Type Intens Accum Rate
10/22/2017 16:31 Wet 51.1F - 44F 32F 5 0% 0.00 in - 0% 0 mhos 0 - None None 0.91 in 0.0 iph
10/22/2017 16:30 Wet 51.3F - 44F 32F 5 0% 0.00 in - 0% 0 mhos 0 - None None 0.91 in 0.0 iph
10/22/2017 16:21 Wet 52.9F - 44F 32F 5 0% 0.00 in - 0% 0 mhos 0 - None None 0.91 in 0.0 iph
10/22/2017 16:15 Wet 51.3F - 44F 32F 5 0% 0.00 in - 0% 0 mhos 0 - None None 0.91 in 0.0 iph
10/22/2017 16:11 Wet 52.0F - 44F 32F 5 0% 0.00 in - 0% 0 mhos 0 - None None 0.91 in 0.0 iph
10/22/2017 16:01 Wet 52.2F - 44F 32F 5 0% 0.00 in - 0% 0 mhos 0 - None None 0.91 in 0.0 iph
10/22/2017 16:00 Wet 52.2F - 44F 32F 5 0% 0.00 in - 0% 0 mhos 0 - None None 0.91 in 0.0 iph
10/22/2017 15:51 Wet 52.3F - 44F 32F 5 0% 0.00 in - 0% 0 mhos 0 - None None 0.91 in 0.0 iph
10/22/2017 15:45 Wet 52.2F - 44F 32F 5 0% 0.00 in - 0% 0 mhos 0 - None None 0.91 in 0.0 iph
10/22/2017 15:41 Wet 52.5F - 44F 32F 5 0% 0.00 in - 0% 0 mhos 0 - None None 0.91 in 0.0 iph
10/22/2017 15:31 Wet 53.1F - 44F 32F 5 0% 0.00 in - 0% 0 mhos 0 - None None 0.91 in 0.0 iph
10/22/2017 15:30 Wet 53.2F - 44F 32F 5 0% 0.00 in - 0% 0 mhos 0 - None None 0.91 in 0.0 iph
10/22/2017 15:21 Wet 53.6F - 44F 32F 5 0% 0.00 in - 0% 0 mhos 0 - None None 0.91 in 0.0 iph
10/22/2017 15:15 Wet 54.0F - 44F 32F 5 0% 0.00 in - 0% 0 mhos 0 - None None 0.91 in 0.0 iph
10/22/2017 15:11 Wet 54.1F - 44F 32F 5 0% 0.00 in - 0% 0 mhos 0 - None None 0.91 in 0.0 iph
Date/Time
(MDT)
Sf
Temp Chem Water Layer Surface Precipitation
Sfc Pvt Sub Frz Factor Pct Dpth DpthThk IcePct Cond Salin FI Type Intens Accum Rate
10/22/2017 15:01 Wet 54.1F - 44F 32F 5 0% 0.00 in - 0% 0 mhos 0 - None None 0.91 in 0.0 iph
10/22/2017 15:00 Wet 54.1F - 44F 32F 5 0% 0.00 in - 0% 0 mhos 0 - None None 0.91 in 0.0 iph
10/22/2017 14:51 Wet 55.8F - 44F 32F 5 0% 0.00 in - 0% 0 mhos 0 - None None 0.91 in 0.0 iph
10/22/2017 14:45 Wet 57.0F - 44F 32F 5 0% 0.00 in - 0% 0 mhos 0 - None None 0.91 in 0.0 iph
10/22/2017 14:40 Wet 57.6F - 44F 32F 5 0% 0.00 in - 0% 0 mhos 0 - None None 0.91 in 0.0 iph
10/22/2017 14:30 Wet 54.1F - 44F 32F 5 0% 0.00 in - 0% 0 mhos 0 - None None 0.91 in 0.0 iph
10/22/2017 14:30 Wet 54.1F - 44F 32F 5 0% 0.00 in - 0% 0 mhos 0 - None None 0.91 in 0.0 iph
10/22/2017 14:20 Wet 54.7F - 44F 32F 5 0% 0.00 in - 0% 0 mhos 0 - None None 0.91 in 0.0 iph
10/22/2017 14:15 Wet 56.1F - 44F 32F 5 0% 0.00 in - 0% 0 mhos 0 - None None 0.91 in 0.0 iph
10/22/2017 14:10 Wet 56.8F - 44F 32F 5 0% 0.00 in - 0% 0 mhos 0 - None None 0.91 in 0.0 iph
10/22/2017 14:00 Wet 58.1F - 44F 32F 5 0% 0.00 in - 0% 0 mhos 0 - None None 0.92 in 0.0 iph
10/22/2017 14:00 Wet 58.1F - 44F 32F 5 0% 0.00 in - 0% 0 mhos 0 - None None 0.92 in 0.0 iph
10/22/2017 13:50 Wet 59.7F - 44F 32F 5 0% 0.00 in - 0% 0 mhos 0 - None None 0.92 in 0.0 iph
10/22/2017 13:45 Wet 60.4F - 44F 32F 5 0% 0.00 in - 0% 0 mhos 0 - None None 0.92 in 0.0 iph
10/22/2017 13:40 Wet 58.8F - 44F 32F 5 0% 0.00 in - 0% 0 mhos 0 - None None 0.92 in 0.0 iph
Date/Time
(MDT)
Sf
Temp Chem Water Layer Surface Precipitation
Sfc Pvt Sub Frz Factor Pct Dpth DpthThk IcePct Cond Salin FI Type Intens Accum Rate
10/22/2017 13:30 Wet 58.8F - 44F 32F 5 0% 0.00 in - 0% 0 mhos 0 - None None 0.92 in 0.0 iph
10/22/2017 13:30 Wet 58.8F - 44F 32F 5 0% 0.00 in - 0% 0 mhos 0 - None None 0.92 in 0.0 iph
10/22/2017 13:20 Wet 55.4F - 44F 32F 5 0% 0.00 in - 0% 0 mhos 0 - None None 0.92 in 0.0 iph
10/22/2017 13:15 Wet 55.2F - 44F 32F 5 0% 0.00 in - 0% 0 mhos 0 - None None 0.92 in 0.0 iph
10/22/2017 13:10 Wet 53.4F - 44F 32F 5 0% 0.00 in - 0% 0 mhos 0 - None None 0.92 in 0.0 iph
10/22/2017 13:00 Wet 51.3F - 44F 32F 5 0% 0.00 in - 0% 0 mhos 0 - None None 0.92 in 0.0 iph
10/22/2017 13:00 Wet 51.3F - 44F 32F 5 0% 0.00 in - 0% 0 mhos 0 - None None 0.92 in 0.0 iph
10/22/2017 12:50 Wet 50.4F - 44F 32F 5 0% 0.00 in - 0% 0 mhos 0 - None None 0.92 in 0.0 iph
10/22/2017 12:45 Wet 49.8F - 44F 32F 5 0% 0.00 in - 0% 0 mhos 0 - None None 0.92 in 0.0 iph
10/22/2017 12:40 Wet 49.1F - 44F 32F 5 0% 0.00 in - 0% 0 mhos 0 - None None 0.92 in 0.0 iph
10/22/2017 12:30 Wet 49.5F - 44F 32F 5 0% 0.00 in - 0% 0 mhos 0 - None None 0.92 in 0.0 iph
10/22/2017 12:30 Wet 49.5F - 44F 32F 5 0% 0.00 in - 0% 0 mhos 0 - None None 0.92 in 0.0 iph
10/22/2017 12:20 Wet 50.7F - 44F 32F 5 0% 0.00 in - 0% 0 mhos 0 - None None 0.92 in 0.0 iph
10/22/2017 12:15 Wet 48.4F - 44F 32F 5 0% 0.00 in - 0% 0 mhos 0 - None None 0.92 in 0.0 iph
10/22/2017 12:10 Wet 47.1F - 44F 32F 5 0% 0.00 in - 0% 0 mhos 0 - None None 0.92 in 0.0 iph
Date/Time
(MDT)
Sf
Temp Chem Water Layer Surface Precipitation
Sfc Pvt Sub Frz Factor Pct Dpth DpthThk IcePct Cond Salin FI Type Intens Accum Rate
10/22/2017 12:00 Wet 47.1F - 44F 32F 5 0% 0.00 in - 0% 0 mhos 0 - None None 0.92 in 0.0 iph
10/22/2017 11:59 Wet 47.1F - 44F 32F 5 0% 0.00 in - 0% 0 mhos 0 - None None 0.92 in 0.0 iph
10/22/2017 11:49 Wet 45.9F - 44F 32F 5 0% 0.00 in - 0% 0 mhos 0 - None None 0.92 in 0.0 iph
10/22/2017 11:45 Wet 45.9F - 44F 32F 5 0% 0.00 in - 0% 0 mhos 0 - None None 0.92 in 0.0 iph
10/22/2017 11:39 Wet 45.9F - 44F 32F 5 0% 0.00 in - 0% 0 mhos 0 - None None 0.92 in 0.0 iph
10/22/2017 11:30 Wet 44.8F - 44F 32F 5 0% 0.00 in - 0% 0 mhos 0 - None None 0.92 in 0.0 iph
10/22/2017 11:29 Wet 44.8F - 44F 32F 5 0% 0.00 in - 0% 0 mhos 0 - None None 0.92 in 0.0 iph
10/22/2017 11:19 Wet 43.2F - 44F 32F 5 0% 0.00 in - 0% 0 mhos 0 - Rain Slight 0.92 in 0.0 iph
10/22/2017 11:15 Wet 42.6F - 44F 32F 5 0% 0.00 in - 0% 0 mhos 0 - Yes Moderate 0.92 in 0.0 iph
10/22/2017 11:09 Wet 42.1F - 44F 32F 5 0% 0.00 in - 0% 0 mhos 0 - None None 0.91 in 0.0 iph
10/22/2017 11:00 Wet 41.7F - 44F 32F 5 0% 0.00 in - 0% 0 mhos 0 - Yes Moderate 0.91 in 0.0 iph
10/22/2017 10:59 Wet 41.7F - 44F 32F 5 0% 0.00 in - 0% 0 mhos 0 - Yes Moderate 0.91 in 0.0 iph
10/22/2017 10:49 Wet 41.4F - 44F 32F 5 0% 0.00 in - 0% 0 mhos 0 - Rain Slight 0.91 in 0.1 iph
10/22/2017 10:45 Wet 41.4F - 44F 32F 5 0% 0.00 in - 0% 0 mhos 0 - Rain Slight 0.90 in 0.1 iph
10/22/2017 10:39 Wet 41.4F - 44F 32F 5 0% 0.00 in - 0% 0 mhos 0 - Rain Slight 0.89 in 0.1 iph
Date/Time
(MDT)
Sf
Temp Chem Water Layer Surface Precipitation
Sfc Pvt Sub Frz Factor Pct Dpth DpthThk IcePct Cond Salin FI Type Intens Accum Rate
10/22/2017 10:30 Wet 41.2F - 44F 32F 5 0% 0.00 in - 0% 0 mhos 0 - Rain Slight 0.87 in 0.1 iph
10/22/2017 10:29 Wet 41.2F - 44F 32F 5 0% 0.00 in - 0% 0 mhos 0 - Yes Moderate 0.87 in 0.0 iph
10/22/2017 10:19 Wet 41.4F - 44F 32F 5 0% 0.00 in - 0% 0 mhos 0 - Rain Slight 0.86 in 0.1 iph
10/22/2017 10:15 Wet 41.4F - 44F 32F 5 0% 0.00 in - 0% 0 mhos 0 - Rain Slight 0.85 in 0.1 iph
10/22/2017 10:09 Wet 41.0F - 44F 32F 5 0% 0.00 in - 0% 0 mhos 0 - Rain Slight 0.84 in 0.1 iph
10/22/2017 10:00 Wet 42.3F - 44F 32F 5 0% 0.00 in - 0% 0 mhos 0 - Rain Heavy 0.79 in 0.4 iph
10/22/2017 09:59 Wet 42.3F - 44F 32F 5 0% 0.00 in - 0% 0 mhos 0 - Snow Slight 0.78 in 0.1 iph
10/22/2017 09:49 Wet 42.3F - 44F 32F 5 0% 0.00 in - 0% 0 mhos 0 - Rain Heavy 0.74 in 0.3 iph
10/22/2017 09:45 Wet 42.3F - 44F 32F 5 0% 0.00 in - 0% 0 mhos 0 - Rain Moderate 0.72 in 0.2 iph
10/22/2017 09:39 Wet 42.3F - 44F 32F 5 0% 0.00 in - 0% 0 mhos 0 - Yes Moderate 0.70 in 0.0 iph
10/22/2017 09:30 Wet 42.1F - 44F 32F 5 0% 0.00 in - 0% 0 mhos 0 - Yes Heavy 0.70 in 0.0 iph
10/22/2017 09:29 Wet 42.1F - 44F 32F 5 0% 0.00 in - 0% 0 mhos 0 - Yes Heavy 0.70 in 0.0 iph
Change End Date:

Copyright © 1998-2015 Vaisala, Inc.
All Rights Reserved
Send comments about the data to:
SCAN Web ® is a registered trademark of Vaisala, Inc.
SCAN Web Version 6.0